Tracking 19490 objects as of 23-Jan-2019
HD Live streaming from Space Station
objects crossing your sky now

COSMOS 878

Track COSMOS 878 now!
10-day predictions
COSMOS 878 is classified as:


NORAD ID: 9595
Int'l Code: 1976-118H
Perigee: 1,470.1 km
Apogee: 1,482.4 km
Inclination: 74.0 °
Period: 115.3 minutes
Semi major axis: 7847 km
RCS: 0.6837 m2 (medium)
Launch date: December 7, 1976
Source: Commonwealth of Independent States (former USSR) (CIS)
Launch site: PLESETSK MISSILE AND SPACE COMPLEX (PKMTR)
aabbcc
Your satellite tracking list
Your tracking list is empty




NASA's NSSDC Master Catalog

Two Line Element Set (TLE):
1  9595U 76118H   19022.95044501 -.00000025 +00000-0 -62843-4 0  9999
2  9595 074.0321 001.0115 0007842 246.0937 143.5413 12.48902926920608
Source of the keplerian elements: AFSPC